UAL631 KLAX-KSAN

Flight info

Callsign UAL631
Flight time N/A
Altitude 13000
Route LAXX1 MZB
Aircraft A339/H-SADE1E2E3GHIJ3J5M1P2RWXY/LB2D1

Departure

Time 2026-04-25 01:19
Airport Los Angeles International Airport (KLAX)

Arrival

Time N/A
Airport San Diego International Airport (KSAN)
Time Latitude Longitude Altitude Speed Heading
2026-04-25 00:45 33.93974 -118.40415 124 ft 0 kts 352°
2026-04-25 01:09 33.93973 -118.40415 131 ft 1 kts 352°
2026-04-25 01:09 33.93966 -118.40414 127 ft 1 kts 352°
2026-04-25 01:09 33.93963 -118.40414 128 ft 0 kts 352°
2026-04-25 01:10 33.93951 -118.40411 131 ft 2 kts 355°
2026-04-25 01:10 33.93937 -118.40410 131 ft 2 kts
2026-04-25 01:10 33.93924 -118.40412 127 ft 2 kts 31°
2026-04-25 01:10 33.93913 -118.40418 131 ft 0 kts 71°
2026-04-25 01:13 33.93917 -118.40402 129 ft 5 kts 73°
2026-04-25 01:13 33.93924 -118.40356 123 ft 7 kts 79°
2026-04-25 01:13 33.93909 -118.40306 122 ft 7 kts 132°
2026-04-25 01:14 33.93866 -118.40280 126 ft 6 kts 139°
2026-04-25 01:14 33.93858 -118.40220 124 ft 8 kts 90°
2026-04-25 01:14 33.93864 -118.40144 125 ft 10 kts 84°
2026-04-25 01:14 33.93872 -118.40052 130 ft 12 kts 83°
2026-04-25 01:15 33.93885 -118.39944 127 ft 14 kts 82°
2026-04-25 01:15 33.93897 -118.39821 123 ft 16 kts 83°
2026-04-25 01:15 33.93911 -118.39683 128 ft 17 kts 83°
2026-04-25 01:15 33.93926 -118.39531 123 ft 19 kts 83°
2026-04-25 01:16 33.93942 -118.39366 126 ft 20 kts 83°
2026-04-25 01:16 33.93961 -118.39191 128 ft 22 kts 82°
2026-04-25 01:16 33.93980 -118.39007 131 ft 23 kts 83°
2026-04-25 01:16 33.94000 -118.38812 124 ft 24 kts 83°
2026-04-25 01:17 33.94020 -118.38611 131 ft 25 kts 83°
2026-04-25 01:17 33.94042 -118.38400 129 ft 26 kts 83°
2026-04-25 01:17 33.94064 -118.38185 131 ft 25 kts 83°
2026-04-25 01:17 33.94075 -118.38082 131 ft 5 kts 82°
2026-04-25 01:18 33.94068 -118.38033 123 ft 7 kts 118°
2026-04-25 01:18 33.94025 -118.38008 125 ft 7 kts 174°
2026-04-25 01:18 33.93986 -118.38045 129 ft 7 kts 241°
2026-04-25 01:18 33.93978 -118.38107 131 ft 8 kts 263°
2026-04-25 01:19 33.93949 -118.38382 131 ft 77 kts 263°
2026-04-25 01:19 33.93844 -118.39364 133 ft 155 kts 263°
2026-04-25 01:19 33.93690 -118.40862 318 ft 198 kts 263°
2026-04-25 01:19 33.93511 -118.42595 845 ft 218 kts 262°
2026-04-25 01:20 33.93324 -118.44527 1333 ft 246 kts 263°
2026-04-25 01:20 33.92999 -118.46612 2039 ft 254 kts 248°
2026-04-25 01:20 33.92152 -118.48464 2875 ft 255 kts 238°
2026-04-25 01:20 33.91026 -118.50134 3482 ft 261 kts 218°
2026-04-25 01:21 33.89411 -118.51044 4235 ft 262 kts 193°
2026-04-25 01:21 33.87601 -118.51451 4952 ft 266 kts 191°
2026-04-25 01:21 33.85766 -118.51853 5678 ft 269 kts 191°
2026-04-25 01:21 33.83906 -118.52243 6394 ft 272 kts 191°
2026-04-25 01:22 33.82029 -118.52622 7092 ft 275 kts 191°
2026-04-25 01:22 33.80135 -118.52996 7789 ft 278 kts 191°
2026-04-25 01:22 33.78205 -118.53368 8502 ft 281 kts 191°
2026-04-25 01:22 33.76268 -118.53730 9250 ft 283 kts 191°
2026-04-25 01:23 33.74303 -118.54082 9964 ft 287 kts 191°
2026-04-25 01:23 33.72298 -118.54421 10422 ft 300 kts 191°
2026-04-25 01:23 33.70183 -118.54774 10606 ft 320 kts 191°
2026-04-25 01:23 33.67896 -118.55001 10841 ft 341 kts 179°
2026-04-25 01:24 33.65567 -118.54264 11482 ft 353 kts 158°
2026-04-25 01:24 33.63534 -118.52539 12076 ft 366 kts 138°
2026-04-25 01:24 33.62059 -118.50003 12648 ft 378 kts 117°
2026-04-25 01:24 33.61160 -118.47001 12953 ft 385 kts 109°
2026-04-25 01:25 33.60295 -118.43895 13021 ft 396 kts 112°
2026-04-25 01:25 33.59224 -118.40901 13033 ft 394 kts 118°
2026-04-25 01:25 33.57959 -118.38001 13009 ft 393 kts 122°
2026-04-25 01:25 33.56584 -118.35173 13027 ft 392 kts 124°
2026-04-25 01:26 33.55163 -118.32381 13032 ft 392 kts 124°
2026-04-25 01:26 33.53729 -118.29604 13025 ft 392 kts 124°
2026-04-25 01:26 33.52294 -118.26824 13026 ft 392 kts 124°
2026-04-25 01:26 33.50857 -118.24033 13024 ft 392 kts 124°
2026-04-25 01:27 33.49443 -118.21278 13021 ft 392 kts 124°
2026-04-25 01:27 33.48014 -118.18490 13018 ft 392 kts 124°
2026-04-25 01:27 33.46592 -118.15717 13015 ft 392 kts 124°
2026-04-25 01:28 33.43733 -118.10144 13015 ft 392 kts 124°
2026-04-25 01:28 33.42300 -118.07355 13012 ft 392 kts 124°
2026-04-25 01:28 33.40872 -118.04578 13008 ft 392 kts 124°
2026-04-25 01:28 33.39458 -118.01830 13008 ft 392 kts 124°
2026-04-25 01:29 33.38030 -117.99056 13008 ft 392 kts 124°
2026-04-25 01:29 33.36597 -117.96274 13011 ft 392 kts 124°
2026-04-25 01:29 33.35163 -117.93493 13010 ft 392 kts 125°
2026-04-25 01:29 33.33732 -117.90719 13009 ft 391 kts 125°
2026-04-25 01:30 33.32299 -117.87944 13013 ft 391 kts 125°
2026-04-25 01:30 33.30885 -117.85206 13011 ft 391 kts 125°
2026-04-25 01:30 33.29452 -117.82433 13017 ft 391 kts 125°
2026-04-25 01:30 33.28015 -117.79658 13016 ft 391 kts 125°
2026-04-25 01:31 33.26584 -117.76892 13016 ft 391 kts 125°
2026-04-25 01:31 33.25153 -117.74131 13012 ft 391 kts 125°
2026-04-25 01:31 33.23718 -117.71362 13018 ft 391 kts 125°
2026-04-25 01:31 33.22280 -117.68593 13019 ft 391 kts 125°
2026-04-25 01:32 33.20846 -117.65832 13014 ft 392 kts 125°
2026-04-25 01:32 33.19407 -117.63070 13018 ft 391 kts 126°
2026-04-25 01:32 33.17885 -117.60429 13018 ft 390 kts 130°
2026-04-25 01:32 33.16335 -117.57769 13015 ft 391 kts 125°
2026-04-25 01:33 33.14950 -117.54977 12872 ft 390 kts 123°
2026-04-25 01:33 33.13596 -117.52167 12624 ft 390 kts 123°
2026-04-25 01:33 33.12222 -117.49378 12370 ft 387 kts 124°
2026-04-25 01:33 33.10835 -117.46640 12123 ft 385 kts 124°
2026-04-25 01:34 33.09433 -117.43925 11872 ft 383 kts 124°
2026-04-25 01:34 33.08031 -117.41235 11620 ft 381 kts 125°
2026-04-25 01:34 33.06630 -117.38558 11379 ft 379 kts 125°
2026-04-25 01:34 33.05242 -117.35933 11131 ft 376 kts 127°
2026-04-25 01:35 33.03631 -117.33602 10877 ft 369 kts 134°
2026-04-25 01:35 33.02047 -117.31264 10669 ft 352 kts 131°
2026-04-25 01:35 33.00580 -117.29016 10499 ft 334 kts 131°
2026-04-25 01:35 32.99186 -117.26872 10339 ft 317 kts 131°
2026-04-25 01:36 32.97875 -117.24856 9963 ft 309 kts 131°
2026-04-25 01:36 32.96561 -117.22845 9421 ft 306 kts 131°
2026-04-25 01:36 32.95259 -117.20870 9072 ft 299 kts 131°
2026-04-25 01:36 32.93958 -117.18900 8989 ft 304 kts 131°
2026-04-25 01:37 32.92654 -117.16923 8980 ft 302 kts 131°
2026-04-25 01:37 32.91356 -117.14951 8978 ft 303 kts 131°
2026-04-25 01:37 32.90055 -117.12973 8977 ft 303 kts 131°
2026-04-25 01:37 32.88755 -117.10995 8977 ft 304 kts 131°
2026-04-25 01:38 32.87448 -117.09010 8974 ft 304 kts 131°
2026-04-25 01:38 32.86163 -117.07052 8977 ft 304 kts 131°
2026-04-25 01:38 32.84863 -117.05066 8991 ft 304 kts 131°
2026-04-25 01:38 32.83564 -117.03081 8984 ft 304 kts 131°
2026-04-25 01:39 32.82265 -117.01090 8988 ft 305 kts 131°
2026-04-25 01:39 32.80962 -116.99103 8987 ft 305 kts 131°
2026-04-25 01:39 32.79650 -116.97109 8988 ft 305 kts 131°
2026-04-25 01:39 32.78352 -116.95126 8899 ft 302 kts 131°
2026-04-25 01:40 32.77081 -116.93183 8561 ft 300 kts 131°
2026-04-25 01:40 32.75784 -116.91210 8090 ft 297 kts 131°
2026-04-25 01:40 32.74532 -116.89314 7582 ft 294 kts 131°
2026-04-25 01:40 32.73271 -116.87416 7057 ft 291 kts 131°
2026-04-25 01:41 32.72028 -116.85547 6568 ft 287 kts 130°
2026-04-25 01:41 32.71136 -116.83436 6004 ft 286 kts 105°
2026-04-25 01:41 32.70771 -116.81133 5446 ft 283 kts 101°
2026-04-25 01:41 32.70104 -116.78994 5095 ft 271 kts 125°
2026-04-25 01:42 32.68755 -116.77419 5008 ft 273 kts 150°
2026-04-25 01:42 32.66991 -116.76685 4996 ft 268 kts 176°
2026-04-25 01:42 32.65180 -116.76979 4993 ft 262 kts 206°
2026-04-25 01:42 32.63803 -116.78301 4987 ft 259 kts 235°
2026-04-25 01:43 32.63235 -116.80296 4993 ft 259 kts 269°
2026-04-25 01:43 32.63688 -116.82347 5000 ft 262 kts 296°
2026-04-25 01:43 32.64323 -116.84352 4991 ft 260 kts 278°
2026-04-25 01:43 32.64721 -116.86439 4999 ft 261 kts 294°
2026-04-25 01:44 32.65628 -116.88310 4986 ft 262 kts 298°
2026-04-25 01:44 32.66404 -116.90258 4990 ft 262 kts 289°
2026-04-25 01:44 32.66946 -116.92315 4983 ft 257 kts 283°
2026-04-25 01:44 32.67397 -116.94324 4981 ft 239 kts 286°
2026-04-25 01:45 32.67834 -116.96092 4978 ft 209 kts 284°
2026-04-25 01:45 32.68214 -116.97684 4910 ft 193 kts 285°
2026-04-25 01:45 32.68567 -116.99130 4829 ft 171 kts 284°
2026-04-25 01:45 32.68887 -117.00472 4292 ft 169 kts 284°
2026-04-25 01:46 32.69211 -117.01807 3720 ft 171 kts 284°
2026-04-25 01:46 32.69534 -117.03141 3335 ft 162 kts 284°
2026-04-25 01:46 32.69830 -117.04368 3116 ft 145 kts 283°
2026-04-25 01:46 32.70098 -117.05482 2810 ft 137 kts 283°
2026-04-25 01:47 32.70361 -117.06572 2497 ft 140 kts 282°
2026-04-25 01:47 32.70629 -117.07671 2175 ft 135 kts 283°
2026-04-25 01:47 32.70888 -117.08734 1766 ft 136 kts 282°
2026-04-25 01:47 32.71145 -117.09816 1410 ft 136 kts 282°
2026-04-25 01:48 32.71405 -117.10886 1094 ft 132 kts 282°
2026-04-25 01:48 32.71649 -117.11910 924 ft 131 kts 283°
2026-04-25 01:48 32.71915 -117.12981 827 ft 136 kts 283°
2026-04-25 01:48 32.72159 -117.14040 586 ft 129 kts 283°
2026-04-25 01:49 32.72429 -117.15077 408 ft 135 kts 282°
2026-04-25 01:49 32.72677 -117.16145 290 ft 129 kts 280°